Location: Shenandoah County Park
(38.9356°N, 78.4524°W)
Time: 15:32:22
(UTC-05:00)

Vanguard 2 Rocket - Pass Details

Date: 04 December 2023
Orbit: 555 x 3309 km, 32.9° (Epoch: 03 March)

Event Time Altitude Azimuth Distance (km) Brightness Sun altitude
Rises 22:27:26 0° 280° (W) 6,928 11.7 -63.5°
Reaches altitude 10° 22:35:00 10° 263° (W) 5,439 11.0 -64.8°
Enters shadow 22:40:09 15° 245° (WSW) 4,597 10.5 -65.6°
Maximum altitude 22:42:50 16° 232° (SW) 4,285 - -66.0°
Drops below altitude 10° 22:49:05 10° 199° (SSW) 4,134 - -66.9°
Sets 22:53:35 0° 179° (S) 4,608 - -67.6°
